TimeEST,TemperatureF,Dew PointF,Humidity,Sea Level PressureIn,VisibilityMPH,Wind Direction,Wind SpeedMPH,Gust SpeedMPH,PrecipitationIn,Events,Conditions,WindDirDegrees,DateUTC
12:15 AM,44.6,28.4,53,30.11,10.0,Calm,Calm,-,N/A,,Clear,0,2012-11-21 05:15:00
12:35 AM,42.8,28.4,57,30.11,10.0,Calm,Calm,-,N/A,,Clear,0,2012-11-21 05:35:00
12:55 AM,44.6,28.4,53,30.10,10.0,NW,6.9,-,N/A,,Clear,320,2012-11-21 05:55:00
1:15 AM,44.6,26.6,49,30.10,10.0,NW,8.1,-,N/A,,Clear,320,2012-11-21 06:15:00
1:35 AM,44.6,26.6,49,30.09,10.0,NW,8.1,-,N/A,,Clear,320,2012-11-21 06:35:00
1:55 AM,46.4,24.8,43,30.09,10.0,NNW,8.1,-,N/A,,Clear,330,2012-11-21 06:55:00
2:15 AM,46.4,24.8,43,30.09,10.0,NW,4.6,-,N/A,,Scattered Clouds,320,2012-11-21 07:15:00
2:35 AM,46.4,24.8,43,30.09,10.0,NW,5.8,-,N/A,,Scattered Clouds,310,2012-11-21 07:35:00
2:55 AM,44.6,24.8,46,30.09,10.0,WNW,5.8,-,N/A,,Clear,300,2012-11-21 07:55:00
3:15 AM,44.6,24.8,46,30.09,10.0,NW,3.5,-,N/A,,Clear,320,2012-11-21 08:15:00
3:35 AM,44.6,24.8,46,30.10,10.0,NW,4.6,-,N/A,,Clear,310,2012-11-21 08:35:00
3:55 AM,44.6,24.8,46,30.09,10.0,NNW,3.5,-,N/A,,Clear,340,2012-11-21 08:55:00
4:15 AM,44.6,24.8,46,30.10,10.0,North,3.5,-,N/A,,Clear,350,2012-11-21 09:15:00
4:35 AM,44.6,24.8,46,30.10,10.0,NW,3.5,-,N/A,,Clear,320,2012-11-21 09:35:00
5:15 AM,44.6,26.6,49,30.11,10.0,Calm,Calm,-,N/A,,Clear,0,2012-11-21 10:15:00
5:35 AM,41.0,26.6,57,30.11,10.0,Calm,Calm,-,N/A,,Clear,0,2012-11-21 10:35:00
5:55 AM,42.8,26.6,53,30.12,10.0,Calm,Calm,-,N/A,,Clear,0,2012-11-21 10:55:00
6:15 AM,42.8,26.6,53,30.12,10.0,Calm,Calm,-,N/A,,Clear,0,2012-11-21 11:15:00
6:35 AM,42.8,26.6,53,30.13,10.0,WNW,3.5,-,N/A,,Clear,300,2012-11-21 11:35:00
7:15 AM,42.8,26.6,53,30.14,10.0,Calm,Calm,-,N/A,,Clear,0,2012-11-21 12:15:00
7:35 AM,42.8,26.6,53,30.14,10.0,Calm,Calm,-,N/A,,Clear,0,2012-11-21 12:35:00
7:55 AM,42.8,26.6,53,30.15,10.0,Calm,Calm,-,N/A,,Clear,0,2012-11-21 12:55:00
8:15 AM,42.8,26.6,53,30.16,10.0,Calm,Calm,-,N/A,,Clear,0,2012-11-21 13:15:00
8:55 AM,44.6,26.6,49,30.16,10.0,Calm,Calm,-,N/A,,Clear,0,2012-11-21 13:55:00
9:15 AM,44.6,26.6,49,30.16,10.0,Calm,Calm,-,N/A,,Clear,0,2012-11-21 14:15:00
9:35 AM,46.4,26.6,46,30.16,10.0,North,5.8,-,N/A,,Clear,350,2012-11-21 14:35:00
9:55 AM,50.0,24.8,37,30.16,10.0,North,4.6,-,N/A,,Clear,350,2012-11-21 14:55:00
10:15 AM,50.0,23.0,35,30.17,10.0,NNE,4.6,-,N/A,,Clear,20,2012-11-21 15:15:00
10:35 AM,50.0,23.0,35,30.18,10.0,NNE,8.1,-,N/A,,Clear,20,2012-11-21 15:35:00
11:15 AM,51.8,24.8,35,30.17,10.0,NNE,4.6,-,N/A,,Clear,20,2012-11-21 16:15:00
11:35 AM,53.6,24.8,33,30.16,10.0,North,8.1,-,N/A,,Clear,360,2012-11-21 16:35:00
11:55 AM,53.6,24.8,33,30.16,10.0,North,5.8,-,N/A,,Clear,10,2012-11-21 16:55:00
12:15 PM,53.6,23.0,30,30.15,10.0,NNE,5.8,-,N/A,,Clear,30,2012-11-21 17:15:00
12:55 PM,55.4,24.8,31,30.14,10.0,NNE,6.9,-,N/A,,Clear,20,2012-11-21 17:55:00
1:15 PM,55.4,24.8,31,30.14,10.0,East,5.8,-,N/A,,Clear,80,2012-11-21 18:15:00
1:35 PM,55.4,24.8,31,30.14,10.0,NE,5.8,-,N/A,,Clear,40,2012-11-21 18:35:00
2:15 PM,55.4,26.6,33,30.14,10.0,North,3.5,-,N/A,,Clear,10,2012-11-21 19:15:00
2:35 PM,55.4,26.6,33,30.13,10.0,NE,4.6,-,N/A,,Clear,40,2012-11-21 19:35:00
2:55 PM,55.4,24.8,31,30.13,10.0,North,10.4,-,N/A,,Clear,360,2012-11-21 19:55:00
3:15 PM,55.4,24.8,31,30.13,10.0,NNW,5.8,-,N/A,,Clear,340,2012-11-21 20:15:00
3:35 PM,55.4,23.0,29,30.13,10.0,North,8.1,-,N/A,,Clear,10,2012-11-21 20:35:00
3:55 PM,55.4,23.0,29,30.14,10.0,North,6.9,-,N/A,,Clear,10,2012-11-21 20:55:00
4:15 PM,55.4,24.8,31,30.15,10.0,NNW,9.2,-,N/A,,Clear,340,2012-11-21 21:15:00
4:35 PM,53.6,24.8,33,30.15,10.0,North,5.8,-,N/A,,Clear,350,2012-11-21 21:35:00
5:15 PM,51.8,24.8,35,30.16,10.0,NNW,6.9,-,N/A,,Clear,340,2012-11-21 22:15:00
5:35 PM,51.8,24.8,35,30.16,10.0,NNW,4.6,-,N/A,,Clear,330,2012-11-21 22:35:00
5:55 PM,51.8,26.6,38,30.16,10.0,NNW,4.6,-,N/A,,Clear,340,2012-11-21 22:55:00
6:15 PM,50.0,26.6,40,30.17,10.0,NNW,5.8,-,N/A,,Clear,330,2012-11-21 23:15:00
6:35 PM,50.0,26.6,40,30.17,10.0,NNW,4.6,-,N/A,,Clear,340,2012-11-21 23:35:00
7:15 PM,48.2,26.6,43,30.18,10.0,NNW,5.8,-,N/A,,Clear,340,2012-11-22 00:15:00
7:35 PM,48.2,26.6,43,30.19,10.0,NNW,5.8,-,N/A,,Clear,340,2012-11-22 00:35:00
7:55 PM,48.2,26.6,43,30.19,10.0,NNW,6.9,-,N/A,,Clear,340,2012-11-22 00:55:00
8:15 PM,48.2,26.6,43,30.19,10.0,NNW,6.9,-,N/A,,Clear,340,2012-11-22 01:15:00
9:15 PM,46.4,26.6,46,30.20,10.0,NNW,4.6,-,N/A,,Clear,340,2012-11-22 02:15:00
9:35 PM,46.4,26.6,46,30.20,10.0,North,3.5,-,N/A,,Clear,350,2012-11-22 02:35:00
9:55 PM,44.6,26.6,49,30.20,10.0,North,3.5,-,N/A,,Clear,360,2012-11-22 02:55:00
10:15 PM,44.6,26.6,49,30.20,10.0,NNW,4.6,-,N/A,,Clear,340,2012-11-22 03:15:00
10:35 PM,44.6,26.6,49,30.20,10.0,NNW,5.8,-,N/A,,Clear,340,2012-11-22 03:35:00
10:55 PM,44.6,26.6,49,30.20,10.0,North,3.5,-,N/A,,Clear,350,2012-11-22 03:55:00
11:15 PM,44.6,26.6,49,30.20,10.0,NNW,4.6,-,N/A,,Clear,340,2012-11-22 04:15:00
11:55 PM,44.6,26.6,49,30.19,10.0,Calm,Calm,-,N/A,,Clear,0,2012-11-22 04:55:00